CZ-6A DEB

Satellite information

Favourite Embed

Satellite Type and Status

DEBRISIN ORBIT

Key statistics

Satellite CZ-6A DEB at a glance.

Uptime

1072

Days in orbit

Revolutions

≈ 14.7

Per day

Orbit

SSO

Sun Synchronous Orbit

Inclination

98.6

Latest

Satellite identification and parameters

Extended collection of information and parameters for CZ-6A DEB.

Object identification

Identified? True

Debris? True

Object name: CZ-6A DEB

International designator: 2022-151ACP

Object number (NORAD): 56271

Object ID (CCSDS): 56271

Country: PEOPLES REPUBLIC OF CHINA (PRC)

Current information (Y/N): Y

RCS size: SMALL

Orbital parameters

Period: 98.138 minutes

Inclination: 98.5509 deg

SMA: 7047.75 km

Apoapsis: 709.502 km

Periapsis: 629.728 km

RAAN: 321.7529 deg

Eccentricy: 0.00565949

Argument of periapsis: 324.9743 deg

Mean anomaly: 34.7743 deg

Mean motion: 14.67327411 rev/day

Mean motion (dot): 0.00022105 rev/day2

B* drag term: 0.0038213987 1/REarth

Two-line elements (TLE)

Creation date: Oct. 16, 2025, 6:34 p.m.

Reference frame: TEME

Reference center: EARTH

Epoch: Oct. 16, 2025, 12:53 a.m. UTC

TLE line 0: 0 CZ-6A DEB

TLE line 1: 1 56271U 22151ACP 25289.03684043 .00022105 00000-0 38214-2 0 9996

TLE line 2: 2 56271 98.5509 321.7529 0056595 324.9743 34.7743 14.67327411136149

Live tracking on map

Real-time ground track for satellite CZ-6A DEB.

In-orbit conjunctions

A list of the most updated potential collisions computed for object CZ-6A DEB.

Target Orbit TCA Probability of collision Miss distance Type
FENGYUN 1C DEB SSO 2025-09-15 11:55:49 0.0001806941 111.0 (m) DEBRIS
CZ-2D DEB SSO 2025-05-13 10:37:38 0.0001185908 237.0 (m) DEBRIS
SL-8 DEB LEO 2025-02-17 15:37:49 0.0001709935 157.0 (m) DEBRIS
CZ-6A DEB LEO 2025-01-04 20:28:56 0.0001405277 520.0 (m) DEBRIS
SL-8 DEB LEO 2024-09-30 02:33:18 0.0001546211 33.0 (m) DEBRIS

Associated space launch

Chinese satellite reported for atmospheric/ocean/environmental/spatial parameter research purposes, details TBD.

CZ-6A DEB was lifted into orbit during the mission ‘Long March 6A | Yunhai 3’, on board a Long March 6A space rocket.

The launch took place on Nov. 11, 2022, 10:52 p.m. from Launch Complex 9A.

For more information about the launch, click the button.

Launch to space Long March 6A | Yunhai 3
Long March 6A | Yunhai 3

Agency: N/A

Status: Launch Successful

Launch date: Nov. 11, 2022, 10:52 p.m. UTC

Rocket: Long March 6A

Launch pad: Launch Complex 9A

Location: Taiyuan Satellite Launch Center, People's Republic of China

...

Latest news about this satellite

There are no fresh news available about this satellite. Check back as we update our databases every day.


Newsletter sign-up

Weekly statistics, charts and insights to help you stay on top of the space industry.